Mactan Cebu International Airport
RPVM : now visible

Airfield :











YOU CAN JOIN US ON...

 
LOGIN :

Register | Disclaimer

   EN    FR    IT 

 









Legend :    VFR   Marginal VFR   IFR   Intensive IFR   Very Intensive IFR
Visi :
Ceiling :
>= 8 km
>= 3000ft
5 to 8 km
1000 to 3000 ft
1500m to 5 km
500 to 1000 ft
800 to 1500m
200 to 500 ft
< 800m
< 200 ft
Symbols :   Thunderstorms  Fog  Heavy snow  Heavy precipitations  Wind > 20 kt






- Airport Elevation : 31 ft
- IATA code : CEB


RPVM - Mactan Cebu International

CURRENT METAR :
  • 311800Z 14002KT 9000 -RA SCT020 OVC090 25/24 Q1006 RMK A2971

EXPIRED METARs :
  • 311700Z VRB01KT 9999 SCT020 OVC090 25/24 Q1006 RMK A2971
  • 311600Z VRB02KT 9999 SCT020 OVC090 25/24 Q1007 RMK A2974

TAF TAF RPVM
Valid from the 31 at 18:00 until the 02 at 00:00 UTC


311700Z 3118/0124 34010KT 9999 FEW020 BKN100
TEMPO 3118/3124 01010KT 9000 -SHRA FEW018CB FEW020 OVC090
TEMPO 0100/0106 02014KT -SHRA FEW018CB FEW020 BKN090
RPHI FIR / Asia



MET'MAP, your aeronautical weather chart ! - Copyright ORBIFLY December 2007 - Disclaimer

ORBIFLY MET'MAP TEAM :

Programming & Development : Alexandra Zaïnal
Concept & original design : Baudouin d'Aumeries
Assistance for programming : Marc-Olivier Méhu
Technical & hardware support : Manuel Goepfert

Contact : metmap@orbifly.com




SOURCES & CREDITS :

   NOAA       Earth
Advisory